Tracking 28790 objects as of 19-Apr-2024
HD Live streaming from Space Station
objects crossing your sky now

DELTA 1 DEB

Track DELTA 1 DEB now!
10-day predictions


NORAD ID: 10626
Int'l Code: 1977-065EV
Perigee: 532.6 km
Apogee: 1,551.5 km
Inclination: 29.2 °
Period: 105.9 minutes
Semi major axis: 7413 km
RCS: 0.0489 m2 (small)
Launch date: July 14, 1977
Source: United States (US)
Launch site: AIR FORCE EASTERN TEST RANGE (AFETR)

Note: This is SATELLITE DEBRIS
Your satellite tracking list
Your tracking list is empty




NASA's NSSDC Master Catalog

Two Line Element Set (TLE):
1 10626U 77065EV  24109.90998239  .00011787  00000-0  30365-2 0  9998
2 10626  29.1747 298.3785 0687275  70.7281 296.6308 13.60219884274693
Source of the keplerian elements: AFSPC